Find Kazsat-2

NORAD ID: 37749 Int'l Des: 2011-035 Owner: KAZK Country: KZ operational
HEOCIRCULARGSOGEO

現在のビュー

3D地球を読み込み中...

Kazsat-2について

説明を読み込み中...

次回通過

Passes for default location (London). Set your location on the main map for personalized predictions.

高度履歴

Loading altitude history...

軌道要素

1 37749U 11035B 26150.09247883 -.00000186 00000-0 00000+0 0 9990
2 37749 0.0395 258.8814 0000891 223.0397 245.5093 1.00272579 53211
Epoch: May 30, 2026 • Age: 10 hours

現在のステータス

高度 35783.1 km
速度 3.07 km/s
衛星直下点 -0.05°S, 86.53°E
打ち上げ日 Jul 15, 2011
運用期間 14.8 years
タイプ other

技術仕様

分類 Payload
質量 1272.00 kg
乾燥質量 900.00 kg
総質量 1272.00 kg
長さ 3.00 m
直径 2.00 m
スパン 7.00 m
形状 Box + 2 Pan
製造者 KHRR
バスタイプ Yakhta
フェーズステータス In Orbit
所有者/国 KAZK/KZ

Most Searched